[[{"header":{"parameterUnit":"m.s-1","parameterCategory":1,"la1":30.2991,"la2":30.254,"lo1":-89.0895,"lo2":-89.0444,"dy":0.0017,"dx":0.0017,"nx":28,"ny":28,"refTime":"2024-05-04T09:00:00:Z","depth":0,"parameterNumber":2,"parameterNumberName":"U-component_of_WINDS"},"data":[0,0,0,0,0,0,0,0,0,0,0,0,0,0,0,0,0,0,0,0,0,0,0,0,0,0,0,0,0,0,0,0,0,0,0,0,0,0,0,0,0,0,0,0,0,0,0,0,0,0,0,0,0,0,0,0,0,0,-2.2067,-2.2066,0,-2.2024,-2.2023,-2.2023,-2.1924,-2.1921,-2.1919,-2.1917,-2.1875,-2.1876,-2.1877,0,0,0,0,0,0,0,0,0,0,0,0,0,-2.2064,-2.2064,-2.2067,-2.2066,-2.2066,-2.2024,-2.2023,-2.2023,-2.1924,-2.1921,-2.1919,-2.1917,-2.1875,-2.1876,-2.1877,0,0,0,0,0,0,0,0,0,0,0,0,0,-2.2048,-2.2065,-2.2067,-2.2011,-2.2006,-2.2024,-2.2023,-2.2022,-2.1924,-2.1921,-2.1918,-2.1915,-2.1875,-2.1876,-2.1877,-2.1946,0,0,-2.1881,-2.1881,0,0,0,0,0,0,0,0,-2.2049,-2.2048,-2.202,-2.2015,-2.2009,-2.1976,-2.2006,-2.1997,-2.1925,-2.1955,-2.1917,-2.1914,-2.1911,-2.1909,-2.1908,-2.1944,-2.1942,-2.1881,-2.1882,-2.1882,-2.1882,0,0,0,0,0,0,0,-2.205,-2.2049,-2.205,-2.202,-2.2013,-2.1989,-2.1983,-2.2004,-2.1951,-2.1953,-2.1945,-2.1941,-2.1908,-2.1907,-2.1906,-2.1942,-2.1881,-2.1882,-2.1883,-2.1883,-2.2031,-2.2034,0,0,0,0,0,0,-2.2059,-2.2051,-2.2051,-2.2048,-2.2022,-2.1991,-2.1985,-2.199,-2.1951,-2.1942,-2.1944,-2.1937,-2.1907,-2.1905,-2.1905,-2.1982,-2.1882,-2.1883,-2.1884,-2.2027,-2.2031,-2.2035,0,0,0,0,0,0,-2.2059,-2.206,-2.2053,-2.2047,-2.2045,-2.1995,-2.2001,-2.199,-2.199,-2.1944,-2.1934,-2.1953,-2.1904,-2.1903,-2.1936,-2.1979,-2.1884,-2.1885,-2.2024,-2.2029,-2.2033,-2.2138,0,0,0,0,0,0,-2.2059,-2.206,-2.2086,-2.2049,-2.2045,-2.2085,-2.2003,-2.1992,-2.1992,-2.1982,-2.195,-2.1942,-2.1902,-2.1935,-2.1937,-2.1979,-2.1886,-2.202,-2.2026,-2.2032,-2.2131,-2.2146,-2.2159,0,0,0,0,0,-2.206,-2.2118,-2.2088,-2.2089,-2.2076,-2.2088,-2.2086,-2.2038,-2.1996,-2.2021,-2.1992,-2.1943,-2.1974,-2.1939,-2.1941,-2.1984,-2.2017,-2.2024,-2.2031,-2.2124,-2.2143,-2.2159,0,0,0,0,0,0,-2.2163,-2.2112,-2.2078,-2.2127,-2.2112,-2.2071,-2.2102,-2.2059,-2.2057,-2.2049,-2.1989,-2.1983,-2.2024,-2.2007,-2.1969,-2.2048,-2.1987,-2.1995,-2.2058,-2.2075,-2.2089,-2.2092,-2.1887,0,0,0,0,0,-2.2192,-2.2205,-2.216,-2.2207,-2.2201,-2.2153,-2.2156,-2.212,-2.2103,-2.2097,-2.207,-2.2056,-2.2062,-2.2067,-2.2071,-2.2127,-2.2119,-2.2158,-2.2172,-2.2184,-2.2192,-2.2219,-2.2236,-2.2058,-2.2058,-2.2058,0,0,-2.2251,-2.2224,-2.2237,-2.2227,-2.2211,-2.2227,-2.2149,-2.2168,-2.2179,-2.21,-2.2129,-2.2109,-2.2089,-2.2134,-2.2153,-2.2121,-2.2238,-2.2193,-2.2203,-2.2204,-2.2228,-2.2245,-2.226,-2.2063,-2.2062,-2.2062,0,0,-2.2366,-2.2348,-2.2384,-2.237,-2.2347,-2.2314,-2.2323,-2.2288,-2.2271,-2.2299,-2.224,-2.2252,-2.2264,-2.2252,-2.2248,-2.2356,-2.2311,-2.2359,-2.2434,-2.2461,-2.2475,-2.2488,-2.2526,-2.254,-2.2367,-2.2367,-2.2367,0,-2.2442,-2.2462,-2.2408,-2.2431,-2.2428,-2.2356,-2.2393,-2.2382,-2.2362,-2.2361,-2.2326,-2.2339,-2.2321,-2.2361,-2.2388,-2.2386,-2.2394,-2.2363,-2.2478,-2.2489,-2.25,-2.2536,-2.255,-2.2373,-2.2372,-2.2372,-2.2371,0,-2.2557,-2.2572,-2.2604,-2.2585,-2.2586,-2.2616,-2.2566,-2.2573,-2.2537,-2.2508,-2.2537,-2.2512,-2.2508,-2.2515,-2.248,-2.2551,-2.2532,-2.2488,-2.2426,-2.2524,-2.2556,-2.257,-2.2381,-2.2379,-2.2378,-2.2376,0,0,-2.2738,-2.2688,-2.27,-2.269,-2.2659,-2.267,-2.2696,-2.2691,-2.2698,-2.2686,-2.2707,-2.2718,-2.2676,-2.2671,-2.2634,-2.2658,-2.2745,-2.2611,-2.261,-2.2637,-2.2821,-2.2854,-2.2871,-2.2715,-2.2717,-2.2719,-2.2822,0,-2.2846,-2.2887,-2.2839,-2.289,-2.2903,-2.2833,-2.2856,-2.2839,-2.2813,-2.2819,-2.2789,-2.2798,-2.2743,-2.274,-2.276,-2.2731,-2.2782,-2.2722,-2.2733,-2.2734,-2.2741,-2.2888,-2.2924,-2.3022,-2.2835,-2.2837,-2.2839,0,-2.2978,-2.2971,-2.3024,-2.2988,-2.2991,-2.3012,-2.3003,-2.3011,-2.299,-2.2969,-2.2962,-2.2917,-2.294,-2.2879,-2.2909,-2.287,-2.2871,-2.2857,-2.286,-2.2859,-2.2793,-2.2892,-2.3053,-2.3068,-2.2858,-2.2857,-2.2855,0,-2.3105,-2.3108,-2.314,-2.3134,-2.3092,-2.3109,-2.3092,-2.3068,-2.3068,-2.3061,-2.306,-2.3056,-2.3053,-2.3051,-2.3005,-2.2966,-2.3041,-2.2977,-2.3024,-2.3026,-2.3044,-2.3043,-2.3208,-2.3045,-2.3045,-2.3044,-2.3044,0,-2.323,-2.3266,-2.3196,-2.3216,-2.3252,-2.3196,-2.3234,-2.321,-2.3189,-2.3203,-2.3143,-2.3157,-2.3096,-2.3103,-2.3068,-2.3098,-2.3098,-2.3081,-2.3071,-2.3086,-2.3089,-2.3087,-2.3079,-2.3048,-2.3047,-2.3047,-2.3046,0,-2.3379,-2.3333,-2.3363,-2.3321,-2.3311,-2.334,-2.3304,-2.332,-2.3289,-2.3307,-2.3308,-2.3259,-2.3264,-2.3218,-2.3216,-2.3192,-2.3238,-2.3217,-2.3246,-2.3239,-2.3288,-2.3285,-2.3457,-2.3477,-2.3302,-2.3304,-2.3305,0,-2.3462,-2.3487,-2.3447,-2.3451,-2.3438,-2.3446,-2.3445,-2.339,-2.3391,-2.3368,-2.3388,-2.3388,-2.3385,-2.3397,-2.3362,-2.3359,-2.3337,-2.3397,-2.3336,-2.335,-2.3337,-2.3337,-2.3339,-2.3411,-2.3413,-2.3415,-2.3416,0,-2.3615,-2.3591,-2.3592,-2.3585,-2.3585,-2.3577,-2.3565,-2.3572,-2.3512,-2.3516,-2.3521,-2.3519,-2.3515,-2.3516,-2.3506,-2.3489,-2.3443,-2.3435,-2.3446,-2.3462,-2.3478,-2.347,-2.3281,-2.3432,-2.343,-2.3429,-2.3428,-2.3428,-2.3733,-2.3752,-2.3726,-2.3728,-2.3713,-2.3703,-2.3716,-2.3685,-2.3687,-2.3679,-2.3646,-2.3657,-2.3634,-2.3615,-2.3602,-2.3609,-2.358,-2.3596,-2.36,-2.3605,-2.3614,-2.3476,-2.3608,-2.3607,-2.3607,-2.3606,-2.3606,0,-2.3883,-2.3862,-2.3865,-2.3849,-2.3851,-2.3806,-2.379,-2.3794,-2.3804,-2.3786,-2.3784,-2.3789,-2.3789,-2.3753,-2.3748,-2.3761,-2.3739,-2.3762,-2.376,-2.3757,-2.364,-2.3631,-2.3779,-2.3779,-2.3779,-2.3779,-2.3779,-2.3779,-2.3961,-2.3989,-2.3962,-2.3982,-2.3961,-2.397,-2.3965,-2.3955,-2.394,-2.3947,-2.3947,-2.3923,-2.3897,-2.389,-2.3888,-2.3877,-2.3878,-2.3908,-2.389,-2.3782,-2.3765,-2.3749,-2.3741,-2.3909,-2.3909,-2.4006,-2.4007,-2.4008]},{"header":{"parameterUnit":"m.s-1","parameterCategory":1,"la1":30.2991,"la2":30.254,"lo1":-89.0895,"lo2":-89.0444,"dy":0.0017,"dx":0.0017,"nx":28,"ny":28,"refTime":"2024-05-04T09:00:00:Z","depth":0,"parameterNumber":3,"parameterNumberName":"V-component_of_WINDS"},"data":[0,0,0,0,0,0,0,0,0,0,0,0,0,0,0,0,0,0,0,0,0,0,0,0,0,0,0,0,0,0,0,0,0,0,0,0,0,0,0,0,0,0,0,0,0,0,0,0,0,0,0,0,0,0,0,0,0,0,-2.2593,-2.2593,0,-2.2594,-2.2594,-2.2594,-2.2563,-2.2563,-2.2562,-2.2561,-2.2561,-2.2562,-2.2563,0,0,0,0,0,0,0,0,0,0,0,0,0,-2.2564,-2.2564,-2.2593,-2.2593,-2.2593,-2.2594,-2.2594,-2.2594,-2.2563,-2.2562,-2.2561,-2.2561,-2.2561,-2.2562,-2.2563,0,0,0,0,0,0,0,0,0,0,0,0,0,-2.2572,-2.2565,-2.2593,-2.2578,-2.2577,-2.2594,-2.2594,-2.2594,-2.2564,-2.2562,-2.2561,-2.256,-2.256,-2.2562,-2.2563,-2.2594,0,0,-2.2566,-2.2567,0,0,0,0,0,0,0,0,-2.2571,-2.2573,-2.258,-2.2579,-2.2578,-2.2577,-2.2583,-2.2594,-2.2564,-2.2569,-2.2561,-2.256,-2.2567,-2.2568,-2.2571,-2.2594,-2.2594,-2.2566,-2.2567,-2.2567,-2.2568,0,0,0,0,0,0,0,-2.2571,-2.2573,-2.2593,-2.258,-2.2579,-2.2571,-2.257,-2.2585,-2.2575,-2.2568,-2.2566,-2.2566,-2.2566,-2.257,-2.257,-2.2594,-2.2566,-2.2567,-2.2568,-2.2568,-2.2641,-2.2642,0,0,0,0,0,0,-2.2572,-2.2572,-2.2593,-2.2593,-2.2571,-2.2572,-2.2572,-2.2579,-2.2575,-2.2573,-2.2567,-2.2565,-2.2568,-2.2569,-2.257,-2.2605,-2.2567,-2.2569,-2.2569,-2.264,-2.2641,-2.2643,0,0,0,0,0,0,-2.2572,-2.2575,-2.2593,-2.2582,-2.2584,-2.2574,-2.2582,-2.2579,-2.2582,-2.2574,-2.2572,-2.2573,-2.2567,-2.2569,-2.2588,-2.2605,-2.2569,-2.257,-2.2638,-2.264,-2.2642,-2.2677,0,0,0,0,0,0,-2.2571,-2.2575,-2.2587,-2.2583,-2.2585,-2.2612,-2.2583,-2.258,-2.2585,-2.2581,-2.2578,-2.2577,-2.2567,-2.2586,-2.2589,-2.2606,-2.2571,-2.2637,-2.2639,-2.2642,-2.2674,-2.268,-2.2684,0,0,0,0,0,-2.257,-2.2597,-2.2588,-2.259,-2.26,-2.2613,-2.2614,-2.2602,-2.2586,-2.2598,-2.2592,-2.2577,-2.2603,-2.2589,-2.2591,-2.2609,-2.2636,-2.2639,-2.2641,-2.2672,-2.2678,-2.2684,0,0,0,0,0,0,-2.2604,-2.2596,-2.2586,-2.2612,-2.2613,-2.2608,-2.2622,-2.2609,-2.2615,-2.2612,-2.2596,-2.2595,-2.2617,-2.2615,-2.2599,-2.2638,-2.2616,-2.262,-2.2639,-2.2645,-2.265,-2.265,-2.2572,0,0,0,0,0,-2.2614,-2.2625,-2.2618,-2.2642,-2.2643,-2.2633,-2.2638,-2.2628,-2.2628,-2.2629,-2.2625,-2.2625,-2.2633,-2.2639,-2.2646,-2.2674,-2.2672,-2.2687,-2.2692,-2.2696,-2.2699,-2.2712,-2.2718,-2.2652,-2.2652,-2.2652,0,0,-2.2636,-2.2633,-2.2641,-2.2648,-2.2648,-2.2659,-2.2633,-2.2647,-2.2655,-2.2631,-2.2648,-2.2645,-2.2645,-2.2668,-2.2678,-2.2667,-2.2717,-2.27,-2.2703,-2.2704,-2.2715,-2.2722,-2.2727,-2.2654,-2.2654,-2.2653,0,0,-2.268,-2.268,-2.2699,-2.2699,-2.2699,-2.2692,-2.2696,-2.2692,-2.2689,-2.2706,-2.2688,-2.2697,-2.2712,-2.2712,-2.2714,-2.2757,-2.2743,-2.276,-2.2787,-2.28,-2.2805,-2.2809,-2.2823,-2.2829,-2.2763,-2.2763,-2.2764,0,-2.2707,-2.2724,-2.271,-2.2725,-2.2728,-2.2706,-2.2725,-2.2726,-2.2728,-2.273,-2.2718,-2.2735,-2.2733,-2.2755,-2.2766,-2.2768,-2.2772,-2.276,-2.2805,-2.2809,-2.2813,-2.2827,-2.2832,-2.2765,-2.2765,-2.2765,-2.2765,0,-2.2756,-2.2768,-2.2783,-2.2785,-2.279,-2.2807,-2.2795,-2.2801,-2.2791,-2.2785,-2.2802,-2.2799,-2.2804,-2.2809,-2.2799,-2.2829,-2.2822,-2.2808,-2.2786,-2.2822,-2.2834,-2.2839,-2.2768,-2.2768,-2.2767,-2.2767,0,0,-2.2823,-2.2816,-2.2822,-2.2822,-2.2819,-2.2828,-2.2843,-2.2848,-2.2853,-2.2855,-2.2866,-2.2879,-2.2865,-2.2867,-2.2857,-2.2868,-2.2901,-2.2852,-2.2852,-2.286,-2.2932,-2.2942,-2.2949,-2.2892,-2.2892,-2.2893,-2.2932,0,-2.2865,-2.289,-2.2878,-2.2904,-2.2914,-2.2893,-2.2905,-2.2905,-2.2899,-2.2906,-2.29,-2.2908,-2.289,-2.2891,-2.2901,-2.2895,-2.2915,-2.2892,-2.2901,-2.2901,-2.2901,-2.2955,-2.2966,-2.3003,-2.2937,-2.2937,-2.2938,0,-2.2918,-2.2922,-2.2949,-2.2943,-2.2947,-2.2958,-2.2961,-2.2969,-2.2967,-2.2962,-2.2964,-2.2951,-2.2964,-2.2942,-2.296,-2.2944,-2.2947,-2.2944,-2.2945,-2.2945,-2.2921,-2.2955,-2.3014,-2.3019,-2.2946,-2.2945,-2.2944,0,-2.2962,-2.2974,-2.2991,-2.2992,-2.2986,-2.2994,-2.2992,-2.2989,-2.2993,-2.2995,-2.2997,-2.3001,-2.3003,-2.3007,-2.2995,-2.298,-2.3013,-2.2991,-2.3008,-2.3009,-2.3016,-2.3015,-2.3075,-2.3019,-2.3019,-2.3019,-2.3019,0,-2.3011,-2.3028,-2.3011,-2.3021,-2.3039,-2.3024,-2.3042,-2.3038,-2.3036,-2.3044,-2.3027,-2.3035,-2.3019,-2.3026,-2.3017,-2.3032,-2.3033,-2.3029,-2.3026,-2.303,-2.303,-2.3031,-2.3028,-2.3021,-2.302,-2.302,-2.302,0,-2.3063,-2.3052,-2.3069,-2.3062,-2.306,-2.3074,-2.3067,-2.3076,-2.3069,-2.308,-2.3082,-2.307,-2.3077,-2.3066,-2.3071,-2.3065,-2.3085,-2.3079,-2.3086,-2.3084,-2.3101,-2.3099,-2.3163,-2.317,-2.3111,-2.3111,-2.3112,0,-2.3094,-2.3106,-2.31,-2.3104,-2.3103,-2.3111,-2.3114,-2.3099,-2.3103,-2.3101,-2.311,-2.3116,-2.3119,-2.3131,-2.3123,-2.3126,-2.312,-2.3141,-2.312,-2.3123,-2.3118,-2.3117,-2.3118,-2.3146,-2.3146,-2.3147,-2.3148,0,-2.315,-2.3143,-2.3149,-2.3152,-2.3156,-2.3157,-2.3158,-2.3162,-2.3147,-2.3152,-2.3159,-2.3161,-2.3166,-2.3171,-2.3173,-2.317,-2.3156,-2.3154,-2.3158,-2.3162,-2.3165,-2.3162,-2.3097,-2.3153,-2.3152,-2.3152,-2.3152,-2.3151,-2.3192,-2.3201,-2.3197,-2.3203,-2.3202,-2.3202,-2.321,-2.3203,-2.3208,-2.3211,-2.3202,-2.3211,-2.3207,-2.3208,-2.3207,-2.3213,-2.3203,-2.3209,-2.321,-2.3212,-2.3214,-2.3165,-2.3213,-2.3213,-2.3213,-2.3213,-2.3212,0,-2.3245,-2.3242,-2.3247,-2.3248,-2.3252,-2.3238,-2.3238,-2.3242,-2.325,-2.3248,-2.3251,-2.3258,-2.3263,-2.3255,-2.3258,-2.3264,-2.3257,-2.3265,-2.3264,-2.3263,-2.3223,-2.3219,-2.327,-2.327,-2.327,-2.327,-2.327,-2.327,-2.3274,-2.3288,-2.3282,-2.3295,-2.3291,-2.3299,-2.33,-2.33,-2.3298,-2.3306,-2.331,-2.3304,-2.33,-2.3302,-2.3305,-2.3303,-2.3304,-2.3314,-2.3309,-2.3272,-2.3266,-2.3261,-2.3256,-2.3315,-2.3315,-2.3348,-2.3348,-2.3349]}]]